Location: Bittkow
(50.3000°N, 19.0000°E)
Time: 02:52:06
(UTC+00:00)

CZ-2C R/B - Pass Details

Date: 19 September 2020
Orbit: 669 x 783 km, 98.2° (Epoch: 18 October)

Event Time Altitude Azimuth Distance (km) Brightness Sun altitude
Rises 02:30:21 0° 17° (NNE) 3,220 6.4 -18.6°
Reaches altitude 10° 02:32:42 10° 22° (NNE) 2,306 5.6 -18.3°
Maximum altitude 02:37:42 55° 100° (E) 929 3.2 -17.5°
Drops below altitude 10° 02:42:46 10° 178° (S) 2,331 4.8 -16.8°
Sets 02:45:08 0° 183° (S) 3,258 5.5 -16.5°
